CAPE
1 6 1 0 1 0 0 0 0 0 0 0 0 0 0 0 0 0 0 0 0 0 0 0 0 0 0 0 0 0 0 0 0 0 0 0 0 0 0 0 0 0 0 0
18 14 2 2 4 1 0 0 1 0 0 0 0 0 0 0 0 0 0 0 0 0 0 0 0 0 0 0 0 0 0 0 0 0 0 0 0 0 0 0 0 0 0 0
29 12 14 13 4 9 11 4 1 2 0 0 0 0 0 0 0 0 0 0 0 0 0 0 0 0 0 0 0 0 0 0 0 0 0 0 0 0 0 0 0 0 0 0
8 7 45 25 13 18 15 2 0 0 0 0 0 0 0 0 0 0 0 0 0 0 0 0 0 0 0 0 0 0 0 0 0 0 0 0 0 0 0 0 0 0 0 0
1 13 36 42 23 17 2 0 0 0 0 0 0 0 0 0 0 0 0 0 0 0 0 0 0 0 0 0 0 0 0 0 0 0 0 0 0 0 0 0 0 0 0 0
1 0 11 15 17 23 1 0 0 0 0 1 0 0 0 0 0 0 0 0 0 0 0 0 0 0 0 0 0 0 0 0 0 0 0 0 0 0 0 0 0 0 0 0
2 4 0 1 37 2 20 15 1 0 0 0 0 0 0 0 0 0 0 0 0 0 0 0 0 0 0 0 0 0 0 0 0 0 0 0 0 0 0 0 0 0 0 0
1 9 0 0 2 5 25 24 0 0 0 0 0 0 0 0 0 0 0 0 0 0 0 0 0 0 0 0 0 0 0 0 0 0 0 0 0 0 0 0 0 0 0 0
7 9 0 0 0 3 1 15 0 0 0 0 0 0 0 0 0 0 0 0 0 0 0 0 0 0 0 0 0 0 0 0 0 0 0 0 0 0 0 0 0 0 0 0
2 0 3 0 0 0 0 0 0 0 0 0 0 0 0 0 0 2 3 0 0 1 1 1 0 0 0 0 0 0 0 0 0 0 0 0 0 0 0 0 0 0 0 0
0 1 4 0 1 2 1 2 2 0 0 0 0 0 0 0 0 2 0 0 0 0 0 0 0 0 0 0 0 0 0 0 0 0 0 0 0 0 0 0 0 0 0 0
0 4 0 2 3 4 0 1 0 0 0 0 0 0 0 0 0 0 0 0 0 0 0 0 0 0 0 0 0 0 0 0 0 0 0 0 0 0 0 0 0 0 0 0
0 0 0 0 3 2 3 0 0 0 0 0 0 0 0 0 0 0 0 0 0 0 0 0 0 0 0 0 0 0 0 0 0 0 0 0 0 0 0 0 0 0 0 0
0 0 0 0 0 0 1 0 0 0 0 0 0 0 0 0 0 0 0 0 0 0 0 0 0 0 0 0 0 0 0 0 0 0 0 0 0 0 0 0 0 0 0 0
0 0 0 0 0 0 0 0 0 0 0 0 0 0 0 0 0 0 0 0 0 0 0 0 0 0 0 0 0 0 0 0 0 0 0 0 0 0 0 0 0 0 0 0
0 0 0 0 0 0 0 0 0 2 1 0 0 0 0 0 0 0 0 0 0 0 0 0 0 0 0 0 0 0 0 0 0 0 0 0 0 0 0 0 0 0 0 0
0 0 0 0 0 0 0 0 0 0 0 0 0 0 0 0 0 0 0 0 0 0 0 0 0 0 0 0 0 0 0 0 0 0 0 0 0 0 0 0 0 0 0 0
0 0 0 0 0 0 0 0 0 0 0 0 0 0 0 0 0 0 0 0 0 0 0 0 0 0 0 0 0 0 0 0 0 0 0 0 0 0 0 0 0 0 0 0
1 0 0 0 0 0 0 0 0 0 0 0 0 0 0 0 0 0 0 0 0 0 0 0 0 0 0 0 0 0 0 0 0 0 0 0 0 0 0 0 0 0 0 0
0 0 0 0 0 0 0 0 0 0 0 0 0 0 0 0 0 0 0 0 0 0 0 0 0 0 0 0 0 0 0 0 0 0 0 0 0 0 0 0 0 0 0 0
0 0 0 0 0 0 0 0 0 0 0 0 0 0 0 0 0 0 0 0 0 0 0 0 0 0 0 0 0 0 0 0 0 0 0 0 0 0 0 0 0 0 0 0
0 0 0 0 0 0 0 0 0 0 0 0 0 0 0 0 0 0 0 0 0 0 0 0 0 0 0 0 0 0 0 0 0 0 0 0 0 0 0 0 0 0 0 0
0 0 0 0 0 0 0 0 0 0 0 0 0 0 0 0 0 0 0 0 0 0 0 0 0 0 0 0 0 0 0 0 0 0 0 0 0 0 0 0 0 0 0 0
0 0 0 0 0 0 0 0 0 0 0 0 0 0 0 0 0 0 0 0 0 0 0 0 0 0 0 0 0 0 0 0 0 0 0 0 0 0 0 0 0 0 0 0
0 0 0 0 0 0 0 0 0 0 0 0 0 0 0 0 0 0 0 0 0 0 0 0 0 0 0 0 0 0 0 0 0 0 0 0 0 0 0 0 0 0 0 0
0 0 0 0 0 0 0 0 0 0 0 0 0 0 0 0 0 0 0 0 0 0 0 0 0 0 0 0 0 0 0 0 0 0 0 0 0 0 0 0 0 0 0 0
CIN
-12 -4 -0 -0 -11 -0 -0 -0 -0 -0 -0 -0 -0 -0 -0 -0 -0 -0 -0 -0 -0 -0 -0 -0 -0 -0 -0 -0 -0 -0 -0 -0 -0 -0 -0 -0 -0 -0 -0 -0 -0 -0 -0 -0
-0 -0 -11 -15 -19 -4 -0 -14 -10 -0 -0 -0 -0 -0 -0 -0 -0 -0 -0 -0 -0 -0 -0 -0 -0 -0 -0 -0 -0 -0 -0 -0 -0 -0 -0 -0 -0 -0 -0 -0 -0 -0 -0 -0
-3 -8 -24 -11 -7 -10 -1 -3 -4 -6 -0 -0 -0 -0 -0 -0 -0 -0 -0 -0 -0 -0 -0 -0 -0 -0 -0 -0 -0 -0 -0 -0 -0 -0 -0 -0 -0 -0 -0 -0 -0 -0 -0 -0
-14 -13 -17 -4 -4 -9 -8 -22 -21 -0 -0 -0 -0 -0 -0 -0 -0 -0 -0 -0 -0 -0 -0 -0 -0 -0 -0 -0 -0 -0 -0 -0 -0 -0 -0 -0 -0 -0 -0 -0 -0 -0 -0 -0
-3 -10 -5 -0 -1 -12 -25 -7 -0 -0 -0 -0 -0 -0 -0 -0 -0 -0 -0 -0 -0 -0 -0 -0 -0 -0 -0 -0 -0 -0 -0 -0 -0 -0 -0 -0 -0 -0 -0 -0 -0 -0 -0 -0
-4 -0 -14 -16 -21 -13 -15 -0 -0 -0 -0 -0 -0 -0 -0 -0 -0 -0 -0 -0 -0 -0 -0 -0 -0 -0 -0 -0 -0 -0 -0 -0 -0 -0 -0 -0 -0 -0 -0 -0 -0 -0 -0 -0
-6 -10 -0 -2 -12 -18 -12 -12 -0 -0 -0 -0 -0 -0 -0 -0 -0 -0 -0 -0 -0 -0 -0 -0 -0 -0 -0 -0 -0 -0 -0 -0 -0 -0 -0 -0 -0 -0 -0 -0 -0 -0 -0 -0
-1 -7 -0 -0 -0 -6 -0 -0 -0 -0 -0 -0 -0 -0 -0 -0 -0 -0 -0 -0 -0 -0 -0 -0 -0 -0 -0 -0 -0 -0 -0 -0 -0 -0 -0 -0 -0 -0 -0 -0 -0 -0 -0 -0
-0 -3 -0 -0 -0 -17 -0 -3 -0 -0 -0 -0 -0 -0 -0 -0 -0 -0 -0 -0 -0 -0 -0 -0 -0 -0 -0 -0 -0 -0 -0 -0 -0 -0 -0 -0 -0 -0 -0 -0 -0 -0 -0 -0
-0 -0 -0 -0 -0 -0 -0 -0 -0 -0 -0 -0 -0 -0 -0 -0 -0 -0 -0 -0 -0 -0 -0 -0 -0 -0 -0 -0 -0 -0 -0 -0 -0 -0 -0 -0 -0 -0 -0 -0 -0 -0 -0 -0
-0 -0 -0 -0 -0 -0 -0 -0 -0 -0 -0 -0 -0 -0 -0 -0 -0 -0 -0 -0 -0 -0 -0 -0 -0 -0 -0 -0 -0 -0 -0 -0 -0 -0 -0 -0 -0 -0 -0 -0 -0 -0 -0 -0
-0 -0 -0 -0 -0 -0 -0 -0 -0 -0 -0 -0 -0 -0 -0 -0 -0 -0 -0 -0 -0 -0 -0 -0 -0 -0 -0 -0 -0 -0 -0 -0 -0 -0 -0 -0 -0 -0 -0 -0 -0 -0 -0 -0
-0 -0 -0 -0 -0 -0 -0 -0 -0 -0 -0 -0 -0 -0 -0 -0 -0 -0 -0 -0 -0 -0 -0 -0 -0 -0 -0 -0 -0 -0 -0 -0 -0 -0 -0 -0 -0 -0 -0 -0 -0 -0 -0 -0
-0 -0 -0 -0 -0 -0 -0 -0 -0 -0 -0 -0 -0 -0 -0 -0 -0 -0 -0 -0 -0 -0 -0 -0 -0 -0 -0 -0 -0 -0 -0 -0 -0 -0 -0 -0 -0 -0 -0 -0 -0 -0 -0 -0
-0 -0 -0 -0 -0 -0 -0 -0 -0 -0 -0 -0 -0 -0 -0 -0 -0 -0 -0 -0 -0 -0 -0 -0 -0 -0 -0 -0 -0 -0 -0 -0 -0 -0 -0 -0 -0 -0 -0 -0 -0 -0 -0 -0
-0 -0 -0 -0 -0 -0 -0 -0 -0 -0 -0 -0 -0 -0 -0 -0 -0 -0 -0 -0 -0 -0 -0 -0 -0 -0 -0 -0 -0 -0 -0 -0 -0 -0 -0 -0 -0 -0 -0 -0 -0 -0 -0 -0
-0 -0 -0 -0 -0 -0 -0 -0 -0 -0 -0 -0 -0 -0 -0 -0 -0 -0 -0 -0 -0 -0 -0 -0 -0 -0 -0 -0 -0 -0 -0 -0 -0 -0 -0 -0 -0 -0 -0 -0 -0 -0 -0 -0
-0 -0 -0 -0 -0 -0 -0 -0 -0 -0 -0 -0 -0 -0 -0 -0 -0 -0 -0 -0 -0 -0 -0 -0 -0 -0 -0 -0 -0 -0 -0 -0 -0 -0 -0 -0 -0 -0 -0 -0 -0 -0 -0 -0
-0 -0 -0 -0 -0 -0 -0 -0 -0 -0 -0 -0 -0 -0 -0 -0 -0 -0 -0 -0 -0 -0 -0 -0 -0 -0 -0 -0 -0 -0 -0 -0 -0 -0 -0 -0 -0 -0 -0 -0 -0 -0 -0 -0
-0 -0 -0 -0 -0 -0 -0 -0 -0 -0 -0 -0 -0 -0 -0 -0 -0 -0 -0 -0 -0 -0 -0 -0 -0 -0 -0 -0 -0 -0 -0 -0 -0 -0 -0 -0 -0 -0 -0 -0 -0 -0 -0 -0
-0 -0 -0 -0 -0 -0 -0 -0 -0 -0 -0 -0 -0 -0 -0 -0 -0 -0 -0 -0 -0 -0 -0 -0 -0 -0 -0 -0 -0 -0 -0 -0 -0 -0 -0 -0 -0 -0 -0 -0 -0 -0 -0 -0
-0 -0 -0 -0 -0 -0 -0 -0 -0 -0 -0 -0 -0 -0 -0 -0 -0 -0 -0 -0 -0 -0 -0 -0 -0 -0 -0 -0 -0 -0 -0 -0 -0 -0 -0 -0 -0 -0 -0 -0 -0 -0 -0 -0
-0 -0 -0 -0 -0 -0 -0 -0 -0 -0 -0 -0 -0 -0 -0 -0 -0 -0 -0 -0 -0 -0 -0 -0 -0 -0 -0 -0 -0 -0 -0 -0 -0 -0 -0 -0 -0 -0 -0 -0 -0 -0 -0 -0
-0 -0 -0 -0 -0 -0 -0 -0 -0 -0 -0 -0 -0 -0 -0 -0 -0 -0 -0 -0 -0 -0 -0 -0 -0 -0 -0 -0 -0 -0 -0 -0 -0 -0 -0 -0 -0 -0 -0 -0 -0 -0 -0 -0
-0 -0 -0 -0 -0 -0 -0 -0 -0 -0 -0 -0 -0 -0 -0 -0 -0 -0 -0 -0 -0 -0 -0 -0 -0 -0 -0 -0 -0 -0 -0 -0 -0 -0 -0 -0 -0 -0 -0 -0 -0 -0 -0 -0
-0 -0 -0 -0 -0 -0 -0 -0 -0 -0 -0 -0 -0 -0 -0 -0 -0 -0 -0 -0 -0 -0 -0 -0 -0 -0 -0 -0 -0 -0 -0 -0 -0 -0 -0 -0 -0 -0 -0 -0 -0 -0 -0 -0
Wind_Speed
2 2 6 5 4 3 4 4 5 1 1 3 9 6 6 1 3 5 6 5 3 4 2 2 2 2 2 2 2 3 2 2 2 1 1 1 3 1 2 3 6 8 7 5
3 7 4 3 3 4 3 2 2 0 0 3 2 6 4 2 3 3 5 5 3 4 6 6 8 9 10 6 7 7 5 4 2 1 1 1 1 2 3 4 7 8 7 8
4 1 7 7 3 5 5 3 5 1 2 2 4 5 4 3 3 5 6 5 5 4 7 6 9 9 8 9 8 9 9 8 7 5 1 1 1 2 4 5 5 6 8 8
6 4 7 5 6 5 3 7 6 7 5 5 4 4 5 5 5 4 5 8 8 9 7 7 8 9 9 8 8 10 10 11 10 8 7 7 4 4 3 3 3 5 9 10
5 7 7 5 4 6 2 3 5 4 3 2 3 3 2 8 5 4 5 9 10 11 11 10 10 10 10 9 9 10 11 11 11 10 8 6 7 6 3 4 6 8 8 9
3 1 0 4 3 6 7 5 6 5 3 4 7 7 4 5 7 6 6 9 12 13 14 13 11 11 11 10 11 11 13 12 8 14 7 11 10 8 7 7 6 6 5 7
3 2 3 2 4 3 9 5 1 2 3 4 4 8 1 2 7 14 15 11 12 13 15 13 14 10 11 12 11 10 14 9 9 15 10 10 10 10 11 9 7 8 6 6
5 5 7 3 2 4 9 8 4 6 4 2 4 6 2 1 9 13 15 15 13 13 11 12 12 10 8 11 10 10 10 12 11 12 11 9 9 6 7 9 7 7 7 7
4 2 1 0 1 1 6 6 2 6 2 2 4 2 3 3 14 13 15 13 13 12 11 12 10 11 8 11 11 9 11 11 12 9 10 10 11 13 10 10 7 6 7 8
2 3 2 2 2 7 2 11 4 1 6 5 3 4 4 6 16 14 12 12 12 11 11 11 10 10 8 9 10 12 10 8 9 9 10 10 11 11 9 7 10 10 9 10
3 1 0 1 2 4 3 3 5 4 2 4 3 5 0 4 18 17 12 11 12 11 11 10 10 10 11 8 8 7 9 11 11 9 8 8 9 8 7 9 9 9 9 11
3 3 3 2 3 2 2 5 3 5 4 3 1 4 6 4 11 13 13 13 12 12 11 8 9 9 8 7 7 8 7 7 6 6 7 9 9 9 10 11 11 11 12 11
5 1 3 1 2 1 3 3 3 3 2 5 5 4 5 7 13 12 16 14 13 13 11 8 8 7 7 7 7 8 8 8 7 7 8 10 11 10 11 11 11 11 10 10
3 3 3 4 2 4 3 6 9 4 2 3 5 4 3 6 16 13 13 13 14 12 11 9 7 6 6 6 7 7 7 7 7 8 9 9 9 10 9 8 8 9 10 10
4 4 3 2 3 1 2 6 12 10 2 6 3 7 9 9 15 15 15 13 13 12 10 8 7 6 5 6 5 5 6 6 7 9 9 8 8 8 8 9 9 8 9 9
0 3 2 4 3 3 2 6 5 6 3 5 2 2 5 7 6 12 15 14 13 11 10 9 8 7 6 5 5 6 8 9 8 6 7 8 8 9 9 8 8 8 8 9
3 5 3 3 3 3 6 12 13 7 6 7 6 7 11 8 14 16 15 13 13 11 10 9 8 7 6 5 6 9 7 5 4 5 6 7 7 7 8 7 8 9 9 9
5 4 2 2 3 1 4 1 6 11 8 10 3 6 17 15 10 6 5 12 11 10 10 8 7 7 5 6 7 4 3 3 4 4 5 6 6 7 8 8 9 9 9 9
3 4 3 5 3 5 5 5 7 10 11 12 8 6 6 11 8 3 4 4 8 9 7 6 6 7 8 6 2 3 4 4 4 5 5 6 7 8 8 10 10 9 9 9
5 5 4 2 5 7 5 2 1 0 6 10 9 11 15 12 9 6 8 9 9 9 8 8 7 8 6 3 2 5 4 3 4 6 7 8 8 8 8 8 8 8 8 9
3 3 3 2 3 9 4 2 1 6 6 1 7 12 17 8 2 11 13 8 9 8 9 7 7 7 5 3 3 5 5 6 5 6 7 7 7 6 7 7 7 9 8 8
5 6 4 3 2 8 3 2 7 2 1 2 5 4 9 9 11 13 12 11 11 10 8 6 7 6 4 3 3 5 5 4 5 6 4 5 5 5 6 7 7 8 9 9
2 5 4 8 6 2 4 4 2 3 3 4 8 8 11 12 8 9 9 9 8 9 7 5 6 6 4 3 3 4 3 4 5 4 4 3 5 6 6 7 8 6 7 7
4 3 2 3 4 8 6 4 3 4 3 4 5 12 11 10 11 8 8 8 8 6 6 4 6 6 4 3 5 4 3 3 1 2 4 4 5 7 5 4 5 5 6 7
5 6 5 6 7 6 8 6 2 2 6 9 8 4 8 11 8 10 8 7 6 6 5 5 5 5 4 3 4 2 1 3 4 3 3 5 5 6 6 6 5 6 5 8
8 10 8 8 8 5 4 8 7 9 7 9 9 6 4 5 9 7 7 6 6 6 5 5 5 5 4 3 3 1 3 4 3 3 4 3 3 4 5 6 7 8 11 16
Wind_Direction
192 197 208 159 211 88 128 151 168 104 42 185 200 203 227 223 210 218 247 237 206 192 169 124 136 144 178 50 221 229 211 222 167 176 220 246 263 341 28 34 48 40 22 9
126 230 161 146 201 143 127 137 148 21 150 162 226 248 249 239 256 202 223 239 182 146 70 57 67 65 63 64 47 49 65 70 93 150 138 102 83 75 91 52 46 31 23 18
223 333 152 150 168 190 164 185 194 268 148 55 142 266 204 176 80 52 41 64 69 123 102 74 69 68 69 61 52 59 58 52 44 43 85 96 112 79 26 30 23 14 18 23
237 204 168 167 180 157 187 194 158 138 166 218 171 264 246 169 109 56 54 77 83 85 83 76 72 64 63 64 66 67 59 51 38 31 60 66 68 84 44 25 13 16 25 26
205 176 185 186 179 155 126 97 134 169 146 305 196 226 249 143 164 139 92 94 89 85 82 71 73 74 65 57 58 60 65 57 51 37 34 70 80 73 70 45 32 20 19 27
177 322 290 181 123 146 136 84 62 37 95 240 184 207 199 186 180 138 119 102 102 98 93 80 66 74 70 61 63 63 54 46 30 77 38 57 56 53 50 34 35 23 12 14
153 81 329 294 110 67 168 148 126 163 197 241 340 192 291 166 170 155 141 124 113 111 98 87 75 62 57 56 50 60 68 54 23 58 47 55 58 54 49 33 30 23 22 19
153 179 178 172 143 156 179 185 179 189 190 170 340 227 232 299 127 138 136 130 120 108 99 95 90 72 57 58 50 53 60 55 33 42 28 35 45 51 53 36 34 29 10 11
151 163 45 349 312 169 160 189 30 109 69 87 211 284 299 113 130 139 138 132 125 113 106 101 88 77 72 62 48 47 49 51 51 27 38 30 38 40 29 30 29 21 12 4
136 134 343 46 187 30 223 145 91 67 154 216 218 264 222 167 161 157 152 137 122 112 105 105 111 109 90 72 61 41 51 59 48 34 33 31 30 30 26 27 25 15 7 2
121 120 161 277 210 167 113 140 75 121 150 167 168 246 93 215 181 170 150 134 130 116 100 91 94 90 74 66 59 54 46 44 39 33 33 36 34 26 28 29 19 11 5 3
205 128 137 93 180 296 307 154 193 152 208 246 210 268 333 226 166 156 137 131 124 121 123 122 103 100 92 81 66 59 56 60 48 42 41 37 31 22 27 19 11 5 2 358
178 181 89 77 106 326 229 155 110 34 87 196 145 252 14 90 113 134 136 137 131 125 119 106 92 84 84 85 75 65 52 46 40 39 40 33 23 18 16 10 2 356 351 349
121 107 153 173 160 118 178 175 157 115 172 192 224 167 183 158 135 137 139 136 132 128 126 117 107 104 97 81 74 64 54 44 37 37 37 29 13 9 3 357 355 351 347 345
126 147 126 133 165 145 135 149 180 184 244 189 215 192 194 178 156 153 143 132 133 135 135 135 127 113 94 83 77 78 67 54 38 40 36 20 0 356 358 0 357 348 346 336
160 130 95 1 1 121 152 182 133 207 262 298 288 195 142 117 114 143 152 150 150 149 139 131 119 110 100 96 84 68 47 36 28 25 20 13 7 1 358 352 349 351 341 341
133 140 103 235 19 104 331 206 189 173 192 168 201 208 149 150 172 170 158 156 157 152 140 129 118 115 104 75 55 50 41 28 34 29 23 9 3 356 354 350 352 351 351 342
130 96 51 152 61 226 250 31 195 210 207 214 210 168 180 172 152 145 162 154 145 141 132 125 126 117 96 62 53 70 70 57 58 45 24 13 359 358 353 355 358 344 350 351
25 134 101 143 198 294 321 198 170 174 243 204 189 131 126 121 89 33 131 120 133 128 118 122 122 119 88 78 74 118 93 69 50 28 13 12 7 357 354 359 349 347 344 356
72 50 115 89 143 201 235 222 17 11 290 177 161 159 148 148 159 205 137 113 106 116 127 131 113 103 104 92 143 133 115 88 39 12 8 12 6 358 350 339 331 339 357 355
43 44 154 193 203 287 236 196 177 107 244 334 172 162 160 170 222 128 126 110 122 126 127 106 106 115 120 133 140 110 83 52 6 2 8 5 357 327 334 329 350 353 345 347
165 139 191 94 65 274 182 91 169 232 329 187 108 122 115 113 115 119 121 130 134 129 123 126 129 131 120 86 105 103 80 24 12 7 358 345 329 335 345 343 349 356 359 351
265 185 188 178 217 237 226 221 292 220 183 163 121 129 127 126 133 132 136 135 141 146 142 133 136 127 96 75 67 103 53 18 12 352 321 325 338 353 345 353 353 347 356 350
253 176 203 57 219 227 235 244 237 208 182 122 120 132 139 135 142 128 139 149 152 145 137 125 136 143 139 93 80 85 44 1 301 338 354 347 346 344 349 341 351 348 343 338
199 122 183 266 273 311 259 221 190 119 94 94 73 107 127 130 148 158 160 151 138 136 144 152 146 133 121 122 102 58 30 24 19 0 3 1 350 338 340 355 339 335 328 323
189 182 172 215 210 169 237 183 164 149 158 150 134 132 130 133 140 131 143 154 152 153 144 129 127 140 158 133 150 115 38 45 30 20 6 347 329 343 342 332 325 328 322 332